Location: Plum
(40.5000°N, 79.7500°W)
Time: 22:01:47
(UTC-04:00)

MOZ.5/SAFIR/RUBIN 5/SL-8 - Visible Passes

Search period start: 14 September 2014 00:00
Search period end: 24 September 2014 00:00
Orbit: 679 x 710 km, 97.8° (Epoch: 14 September)

Date Brightness Start Highest point End Pass type
(mag) Time Alt. Az. Time Alt. Az. Time Alt. Az.
14 Sep 5.7 06:02:30 10° SE 06:06:44 35° ENE 06:10:58 10° N visible
15 Sep 5.8 20:18:47 10° N 20:22:56 33° WNW 20:27:04 10° SW visible
16 Sep 6.4 05:46:12 10° ESE 05:49:57 24° ENE 05:53:40 10° NNE visible
16 Sep 7.1 21:00:34 10° NNW 21:02:53 14° WNW 21:05:11 10° W visible
17 Sep 4.5 06:25:27 10° SSE 06:30:03 61° ENE 06:34:40 10° N visible
17 Sep 4.9 20:01:37 10° N 20:06:05 48° WNW 20:10:33 10° SW visible
18 Sep 6.9 05:30:13 10° ESE 05:33:11 17° ENE 05:36:09 10° NNE visible
18 Sep 6.7 20:42:50 10° NNW 20:46:09 20° WNW 20:49:28 10° WSW visible
19 Sep 5.3 06:08:50 10° SE 06:13:12 41° ENE 06:17:34 10° N visible
19 Sep 4.1 19:44:34 10° N 19:49:13 73° WNW 19:53:51 10° SSW visible
20 Sep 7.2 05:14:51 10° E 05:16:28 12° ENE 05:18:05 10° NE visible
20 Sep 6.0 20:25:25 10° N 20:29:22 28° WNW 20:33:19 10° SW visible
21 Sep 6.0 05:52:25 10° SE 05:56:22 28° ENE 06:00:19 10° N visible
21 Sep 7.2 21:07:39 10° NW 21:09:16 12° WNW 21:10:53 10° W visible
22 Sep 4.1 06:31:53 10° SSE 06:36:31 73° ENE 06:41:10 10° N visible
22 Sep 5.3 20:08:11 10° N 20:12:32 41° WNW 20:16:54 10° SW visible
23 Sep 6.6 05:36:16 10° ESE 05:39:35 20° ENE 05:42:54 10° NNE visible
23 Sep 6.8 20:49:35 10° NNW 20:52:32 17° WNW 20:55:30 10° WSW visible
